2021-050B (48841 NORAD) Tracking and Keplerian Element Data

This shows tracking and keplerian element data for the satellite.

Feedback or suggestion? Click here.




ElementValue
Catalog48841
Name2021-050B
Epoch Orbit807
Epoch Day215.23945331
Epoch Year2021
RAAN285.0279
Inclination97.5108
Eccentricity0.0014476
Argument of Perigee91.9108
Mean Anonmoly317.2254
Mean Motion15.23831526
Decay Rate-7.3E-07
L11 48841U 21050B 21215.23945331 -.00000073 00000-0 00000+0 0 9994
L22 48841 97.5108 285.0279 0014476 91.9108 317.2254 15.23831526 8075

Live tracking and technical data element details for 2021-050B (NORAD 48841). 2021-050B can be tracked NOW for your location showing map with azimuth and elevation plus other details from your city location.

Track the satellite on the map from your city or location and see movement details for azimuth, elevation, latitude, longitude, range, height, and movement on the map or in text.







IsCatalogInMostPopularTable: catalog: 48841, numindb: 11
Update: records affected: 1



GetName: 48841 2021-050B

Hit Count: updated at: Tue, 03 Aug 2021 22:45:37 GMT